Regional Weather Roundup
Issued by NWS

Home | Current Version | Previous Version | Text Only | Print | Product List | Glossary Off
Versions: 1 2 3 4 5 6 7 8 9 10 11 12 13 14 15 16 17 18 19 20 21 22 23 24 25 26 27 28 29 30 31 32 33 34 35 36 37 38 39 40 41 42 43 44 45 46 47 48 49 50

000
ASUS43 KDMX 231808
RWRIA

WEATHER ROUNDUP FOR IOWA
NATIONAL WEATHER SERVICE DES MOINES IA
100 PM CDT TUE AUG 23 2016

NOTE: "FAIR" INDICATES FEW OR NO CLOUDS BELOW 12,000 FEET WITH NO
SIGNIFICANT WEATHER AND/OR OBSTRUCTIONS TO VISIBILITY.

* - THESE STATIONS ARE NOT NWS STATIONS...THUS NOT UNDER NWS
QUALITY CONTROL.  THEY ALSO DO NOT REPORT WEATHER SUCH
AS PRECIPITATION OR FOG.

IAZ001>003-012>014-020>022-031>034-043>046-231900-
   NORTHWEST IOWA

CITY           SKY/WX    TMP DP  RH WIND       PRES   REMARKS
CARROLL *      CLOUDY    79  72  78 SE18      29.94F HX  82
CHEROKEE *     CLOUDY    75  71  87 S10       29.90F
DENISON *      CLOUDY    73  68  83 S17G25    29.93R
LE MARS *      CLOUDY    72  68  88 S7        29.91S
ORANGE CITY *  RAIN      72  70  94 S3        29.90F
SHELDON *      LGT RAIN  72  70  94 S7        29.89F
SIOUX CITY     TSTM      65  63  93 N14G37    29.92R VSB 1/4
6HR MIN TEMP:  65; 6HR MAX TEMP:  74; 6HR PCP: TRACE;

SPENCER        CLOUDY    77  69  76 SE14      29.91F
6HR MIN TEMP:  62; 6HR MAX TEMP:  78;

STORM LAKE *   CLOUDY    77  72  83 S14G21    29.93F
$$

IAZ055>058-069>071-079>083-090>094-231900-
   SOUTHWEST IOWA

CITY           SKY/WX    TMP DP  RH WIND       PRES   REMARKS
ATLANTIC *     CLOUDY    73  70  88 S15       29.96F
AUDUBON *      CLOUDY    73  68  83 SE12G17   29.97F
CLARINDA *       N/A     77  72  83 MISG      29.98F
COUNCIL BLFS * CLOUDY    73  72  94 SE17      29.92F
CRESTON *      CLOUDY    73  70  88 S14G21    30.01F
HARLAN  *      CLOUDY    72  70  94 S14       29.98S FOG
LAMONI         CLOUDY    74  70  87 S13G20    30.02F
6HR MIN TEMP:  61; 6HR MAX TEMP:  74;

RED OAK *      CLOUDY    75  72  88 S13       29.95F
SHENANDOAH *   CLOUDY    77 -33   1 S16G22    29.94F
$$

IAZ047>049-059>061-072>074-084-231900-
   CENTRAL IOWA

CITY           SKY/WX    TMP DP  RH WIND       PRES   REMARKS
AMES           MOSUNNY   80  69  69 S20G26    29.99F HX  83
6HR MIN TEMP:  60; 6HR MAX TEMP:  81;

ANKENY *         N/A    N/A N/A N/A MISG        N/A
BOONE *        MOSUNNY   81  70  69 SE15G23   29.98F HX  84
CHARITON *       N/A     77  70  78 MISG      30.03F
DES MOINES     CLOUDY    83  69  62 S21       29.99F HX  86
6HR MIN TEMP:  65; 6HR MAX TEMP:  83;

GRINNELL*      SUNNY     80  66  61 SE12G21   30.05F HX  82
KNOXVILLE *    MOSUNNY   79  68  69 SE15G22   30.01F HX  81
MARSHALLTOWN   MOSUNNY   81  67  62 S15G25    30.02  HX  83
6HR MIN TEMP:  62; 6HR MAX TEMP:  81;

NEWTON *       MOSUNNY   79  68  69 SE17G24   30.02F HX  81
PERRY *          N/A     79  73  81 S17G24    29.97F HX  83
$$

IAZ004>006-015-016-023>025-035-036-231900-
   NORTH CENTRAL IOWA

CITY           SKY/WX    TMP DP  RH WIND       PRES   REMARKS
ALGONA *       MOSUNNY   81  70  69 S17G25    29.95F HX  84
ESTHERVILLE    CLOUDY    77  71  82 S15       29.92F
6HR MIN TEMP:  61; 6HR MAX TEMP:  77;

FORT DODGE *   CLOUDY    81  70  69 S15G22    29.97F HX  84
MASON CITY     MOSUNNY   80  66  62 S24G30    30.00F HX  82
6HR MIN TEMP:  60; 6HR MAX TEMP:  81;

FOREST CITY *    N/A     79  68  69 S18G25    29.98F HX  81
WEBSTER CITY * SUNNY     81  70  69 S17G24    29.96F HX  84
IOWA FALLS *     N/A     81  67  63 S14       30.02F HX  83
$$

IAZ007>011-017>019-026>030-037>042-050>054-066-231900-
   NORTHEAST IOWA

CITY           SKY/WX    TMP DP  RH WIND       PRES   REMARKS
CEDAR RAPIDS   MOSUNNY   79  69  71 S12G18    30.07F HX  81
6HR MIN TEMP:  61; 6HR MAX TEMP:  79;

CHARLES CITY * MOSUNNY   79  70  73 S15G25    30.03F HX  81
CLINTON *      PTSUNNY   79  65  62 S14       30.13  HX  81
DECORAH *      MOSUNNY   77  66  69 S13G21    30.05F
DUBUQUE        MOSUNNY   77  65  66 S16G25    30.11F
6HR MIN TEMP:  60; 6HR MAX TEMP:  77;

MONTICELLO *   MOSUNNY   79  68  69 S12G20    30.09F HX  81
OELWEIN *      MOSUNNY   79  68  69 S18       30.07F HX  81
WATERLOO       MOSUNNY   80  65  59 S13G25    30.02F HX  82
6HR MIN TEMP:  63; 6HR MAX TEMP:  80;

$$

IAZ064-065-067-068-078-231900-
   EAST CENTRAL IOWA

CITY           SKY/WX    TMP DP  RH WIND       PRES   REMARKS
DAVENPORT      MOSUNNY   80  65  59 S14       30.12F HX  82
6HR MIN TEMP:  63; 6HR MAX TEMP:  80;

IOWA CITY      MOSUNNY   79  66  64 SE16      30.09F HX  81
6HR MIN TEMP:  61; 6HR MAX TEMP:  81;

MT. PLEASANT * PTSUNNY   82  67  61 S15G23    30.10S HX  84
MUSCATINE *    PTSUNNY   82  66  57 S13G20    30.09F HX  85
QUAD CITIES    MOSUNNY   80  65  59 S13       30.11F HX  82
6HR MIN TEMP:  63; 6HR MAX TEMP:  80;

$$

IAZ062-063-075>077-085>089-095>099-231900-
   SOUTHEAST IOWA

CITY           SKY/WX    TMP DP  RH WIND       PRES   REMARKS
BURLINGTON     PTSUNNY   78  66  66 S14       30.11F HX  80
6HR MIN TEMP:  61; 6HR MAX TEMP:  79;

FAIRFIELD *    PTSUNNY   79  68  69 S14       30.08S HX  81
FORT MADISON * CLOUDY    77  66  69 SE10G20   30.11S
KEOKUK *       CLOUDY    79  68  69 SE12G20   30.10S HX  81
OSKALOOSA *      N/A     78  69  72 S17G23    30.06F HX  81
CENTERVILLE *    N/A     77  70  78 SE8       30.07F
OTTUMWA        MOSUNNY   80  68  66 S15G21    30.06F HX  83
6HR MIN TEMP:  62; 6HR MAX TEMP:  80;

WASHINGTON *   PTSUNNY   77  68  73 SE13G20   30.09F
$$

ABBREVIATIONS USED IN REMARKS
   TC - TEMPERATURES IN CELSIUS
  WCI - WIND CHILL INDEX
   HX - HEAT INDEX
  VSB - VISIBILITY
$$





USA.gov is the U.S. government's official web portal to all federal, state and local government web resources and services.